Home > Weather > Breckenridge > Past weeks

Flag for USA Past Weather in Breckenridge, Colorado, USA — Yesterday and Last 2 Weeks

Now
68 °F

Scattered clouds.


Feels Like: 68 °F
Forecast: 46 / 80 °F
Wind: 25 mph from West

Location: Copper Mountain - Red Cliff Pass

Current Time: Jul 28, 2016 at 2:26:42 PM

Latest Report: Jul 28, 2016 at 1:56 PM


Visibility: 10 mi

Pressure: 30.71 "Hg (21.85 "Hg at 2921m altitude)

Humidity: 11%

Dew Point: 12 °F

Location of BreckenridgeLocation

Past Weather in Breckenridge — Graph

°F

Breckenridge Temperature Yesterday

Maximum temperature yesterday: 68 °F (at 2:56 PM)
Minimum temperature yesterday: 54 °F (at 12:36 AM)
Average temperature yesterday: 60 °F

High & Low Weather Summary for the Past Weeks

 TemperatureHumidityPressure
High72 °F (Jul 17, 3:36 PM)82% (Jul 19, 7:36 AM)30.85 "Hg (Jul 19, 7:36 AM)
Low45 °F (Jul 24, 3:56 AM)5% (Jul 16, 4:16 PM)30.51 "Hg (Jul 16, 5:36 AM)
Average58 °F36%30.72 "Hg
* Reported Jul 13 12:55 PM — Jul 28 12:56 PM, Breckenridge, Weather by CustomWeather, © 2016

Note: Actual official high and low records may vary slightly from our data, if they occured in-between our weather recording intervals... More about our weather records

Advertising

Breckenridge Weather History for the Previous 24 Hours

Scroll right to see more
 ConditionsComfort  
Time TempWeatherWind HumidityBarometerVisibility
12:56 PM
Thu, Jul 28
68 °FSunny.22 mph10%30.73 "Hg10 mi
12:36 PM68 °FSunny.21 mph10%30.73 "Hg10 mi
12:16 PM68 °FSunny.14 mph10%30.72 "Hg10 mi
11:56 AM68 °FSunny.14 mph11%30.73 "Hg10 mi
11:36 AM64 °FSunny.13 mph13%30.73 "Hg10 mi
11:16 AM64 °FSunny.17 mph13%30.72 "Hg10 mi
10:56 AM64 °FSunny.16 mph14%30.71 "Hg10 mi
10:36 AM64 °FSunny.8 mph16%30.72 "Hg10 mi
10:16 AM64 °FSunny.9 mph18%30.72 "Hg10 mi
9:56 AM61 °FSunny.8 mph16%30.72 "Hg10 mi
9:36 AM61 °FSunny.8 mph19%30.72 "Hg10 mi
9:16 AM61 °FSunny.No wind20%30.73 "Hg10 mi
8:56 AM59 °FSunny.5 mph21%30.73 "Hg10 mi
8:36 AM59 °FSunny.No wind21%30.72 "Hg10 mi
8:16 AM59 °FSunny.8 mph23%30.72 "Hg10 mi
7:56 AM57 °FSunny.9 mph23%30.72 "Hg10 mi
7:36 AM55 °FSunny.10 mph23%30.72 "Hg10 mi
7:16 AM55 °FSunny.10 mph23%30.72 "Hg10 mi
6:56 AM55 °FClear.9 mph24%30.71 "Hg10 mi
6:36 AM54 °FClear.8 mph24%30.69 "Hg10 mi
5:56 AM59 °FClear.7 mph17%30.69 "Hg10 mi
5:36 AM59 °FClear.13 mph18%30.69 "Hg10 mi
5:16 AM59 °FClear.17 mph18%30.69 "Hg10 mi
4:56 AM59 °FClear.14 mph17%30.69 "Hg10 mi
4:36 AM59 °FClear.15 mph17%30.69 "Hg10 mi
4:16 AM59 °FClear.12 mph16%30.69 "Hg10 mi
3:56 AM59 °FClear.10 mph13%30.70 "Hg10 mi
3:36 AM59 °FClear.10 mph13%30.70 "Hg10 mi
3:16 AM59 °FClear.8 mph13%30.69 "Hg10 mi
2:56 AM59 °FClear.7 mph12%30.70 "Hg10 mi
2:36 AM59 °FClear.9 mph13%30.71 "Hg10 mi
2:16 AM59 °FClear.9 mph13%30.71 "Hg10 mi
1:56 AM59 °FClear.7 mph13%30.71 "Hg10 mi
1:36 AM59 °FClear.6 mph13%30.72 "Hg10 mi
1:16 AM59 °FClear.7 mph13%30.72 "Hg10 mi
12:56 AM59 °FClear.6 mph14%30.73 "Hg10 mi
12:36 AM59 °FClear.6 mph13%30.73 "Hg10 mi
12:16 AM59 °FClear.3 mph14%30.74 "Hg10 mi
11:56 PM
Wed, Jul 27
61 °FClear.6 mph13%30.74 "Hg10 mi
11:36 PM61 °FClear.6 mph13%30.74 "Hg10 mi
11:16 PM61 °FClear.6 mph15%30.74 "Hg10 mi
10:56 PM61 °FClear.8 mph15%30.75 "Hg10 mi
10:36 PM59 °FClear.6 mph17%30.75 "Hg10 mi
10:16 PM59 °FClear.3 mph17%30.75 "Hg10 mi
9:56 PM59 °FClear.3 mph17%30.75 "Hg10 mi
9:36 PM61 °FClear.5 mph17%30.75 "Hg10 mi
9:16 PM61 °FSunny.9 mph19%30.75 "Hg10 mi
8:56 PM61 °FSunny.7 mph20%30.74 "Hg10 mi
8:36 PM61 °FSunny.9 mph20%30.74 "Hg10 mi
8:16 PM61 °FSunny.9 mph20%30.74 "Hg10 mi
7:56 PM64 °FSunny.13 mph19%30.73 "Hg10 mi
7:36 PM64 °FScattered clouds.12 mph19%30.73 "Hg10 mi
7:16 PM64 °FScattered clouds.14 mph19%30.73 "Hg10 mi
6:56 PM64 °FSunny.16 mph19%30.72 "Hg10 mi
6:36 PM68 °FSunny.21 mph14%30.72 "Hg10 mi
6:16 PM66 °FScattered clouds.14 mph15%30.72 "Hg10 mi
5:56 PM64 °FScattered clouds.3 mph18%30.73 "Hg10 mi
5:36 PM64 °FScattered clouds.9 mph19%30.73 "Hg10 mi
5:16 PM64 °FPartly sunny.6 mph19%30.74 "Hg10 mi
4:56 PM64 °FScattered clouds.10 mph19%30.74 "Hg10 mi
4:36 PM64 °FScattered clouds.7 mph18%30.74 "Hg10 mi
4:16 PM64 °FScattered clouds.17 mph21%30.74 "Hg10 mi
3:56 PM68 °FBroken clouds.12 mph18%30.74 "Hg10 mi
3:36 PM68 °FPartly sunny.3 mph16%30.75 "Hg10 mi
3:16 PM68 °FScattered clouds.17 mph17%30.74 "Hg10 mi
2:56 PM68 °FScattered clouds.20 mph17%30.74 "Hg10 mi
2:36 PM66 °FScattered clouds.16 mph15%30.74 "Hg10 mi
2:16 PM66 °FSunny.14 mph18%30.74 "Hg10 mi
Weather by CustomWeather, © 2016

See weather overviewHow to use our weather pages